(154542) = 2003 GX26

Discovered at Kitt Peak on 2003-04-04 by Spacewatch.

Orbit

Orbit type: Main Belt

Note: WebGL enabled browser required.

epoch2023-02-25.0
epoch JD2460000.5
perihelion date2021-04-22.07433
perihelion JD2459326.57433
argument of perihelion (°)347.20650
ascending node (°)19.48431
inclination (°)4.12390
eccentricity0.1635809
perihelion distance (AU)2.1247843
Tisserand w.r.t. Jupiter3.4
ΔV w.r.t. Earth (km/sec)9.2
semimajor axis (AU)2.5403345
mean anomaly (°)164.05122
mean daily motion (°/day)0.24342630
aphelion distance (AU)2.956
period (years)4.05
P-vector [x]0.99299810
P-vector [y]0.11372749
P-vector [z]0.03195032
Q-vector [x]-0.11566938
Q-vector [y]0.88115417
Q-vector [z]0.45846256
absolute magnitude16.22
phase slope0.15
uncertainty0
referenceMPO 745323
observations used283
oppositions16
arc length (days)8800
first opposition used1999
last opposition used2023
residual rms (arc-secs)0.78
perturbers coarse indicatorM-v
perturbers precise indicator003Ek
first observation date used1999-03-14.0
last observation date used2023-04-17.0
computer nameMPCLINUX
JD of orbit computation2456640.731836
perihelion JD uncertainty (days)1.3384E-04
argument of perihelion uncertainty (°)8.0256E-05
ascending node uncertainty (°)7.5526E-05
inclination uncertainty (°)7.6674E-06
eccentricity uncertainty 7.2947E-08
perihelion distance uncertainty (AU)1.8496E-07
Minimum Orbit Intersection Distances (in AU)
for orbit epoch: 2460000.5, reference: E2023-H66
Mercury1.76461
Venus1.3995
Earth1.12199
Mars0.7169
Jupiter2.49347
Saturn6.4401
Uranus15.5055
Neptune27.6565

Observations

291 total observations over interval: 1999 03 14.45767 – 2023 04 17.319879
These data are available for download (format description).

Date (UT) J2000 RA J2000 Dec Magn Location Ref
1999 03 14.45767 13 44 12.33 -10 26 59.8 20.8 V 691 – Steward Observatory, Kitt Peak-Spacewatch MPS 111864
1999 03 14.49172 13 44 11.06 -10 26 54.3 21.2 V 691 – Steward Observatory, Kitt Peak-Spacewatch MPS 111864
2001 12 18.36861 07 58 25.19 +27 09 51.7 20.6   644 – Palomar Mountain/NEAT MPS 111864
2001 12 18.37929 07 58 24.70 +27 09 54.1 20.5   644 – Palomar Mountain/NEAT MPS 111864
2001 12 18.38990 07 58 24.21 +27 09 56.5 20.2   644 – Palomar Mountain/NEAT MPS 111864
2003 03 23.35425 13 21 07.08 -08 01 29.7 20.8 V 291 – LPL/Spacewatch II MPS 78454
2003 03 23.37764 13 21 05.92 -08 01 24.8 21.0 V 291 – LPL/Spacewatch II MPS 78454
2003 03 23.40113 13 21 04.78 -08 01 20.0 20.9 V 291 – LPL/Spacewatch II MPS 78454
2003 04 01.36282 13 13 31.73 -07 26 31.7 19.5 R 695 – Kitt Peak MPS 78454
2003 04 01.43332 13 13 27.86 -07 26 14.4   695 – Kitt Peak MPS 78454
2003 04 04.30463 13 10 53.87 -07 14 08.8 19.8 V 291 – LPL/Spacewatch II MPS 76495
2003 04 04.32786 13 10 52.57 -07 14 03.0 20.5 V 291 – LPL/Spacewatch II MPS 76495
2003 04 04.35150 13 10 51.25 -07 13 57.4 20.5 V 291 – LPL/Spacewatch II MPS 76495
2003 04 08.31712 13 07 15.28 -06 56 54.4 20.0 V 691 – Steward Observatory, Kitt Peak-Spacewatch MPS 76495
2003 04 08.34402 13 07 13.77 -06 56 47.6 20.0 V 691 – Steward Observatory, Kitt Peak-Spacewatch MPS 76495
2003 04 08.37153 13 07 12.23 -06 56 40.3 20.1 V 691 – Steward Observatory, Kitt Peak-Spacewatch MPS 76495
2003 04 24.20895 12 53 20.65 -05 50 41.1 20.9 V 291 – LPL/Spacewatch II MPS 78454
2003 04 24.23246 12 53 19.46 -05 50 35.8 20.9 V 291 – LPL/Spacewatch II MPS 78454
2003 04 24.25576 12 53 18.31 -05 50 30.4 21.3 V 291 – LPL/Spacewatch II MPS 78454
2003 04 26.23278 12 51 44.54 -05 43 08.1 20.6 V 691 – Steward Observatory, Kitt Peak-Spacewatch MPS 78454
2003 04 26.26192 12 51 43.13 -05 43 01.9 20.7 V 691 – Steward Observatory, Kitt Peak-Spacewatch MPS 78454
2003 04 26.28949 12 51 41.80 -05 42 55.8 20.9 V 691 – Steward Observatory, Kitt Peak-Spacewatch MPS 78454
2003 04 30.15196 12 48 49.11 -05 29 28.6 20.9 V 291 – LPL/Spacewatch II MPS 78454
2003 04 30.17519 12 48 48.10 -05 29 23.8 20.9 V 291 – LPL/Spacewatch II MPS 78454
2003 04 30.19837 12 48 47.08 -05 29 19.3 20.7 V 291 – LPL/Spacewatch II MPS 78454
2004 07 11.25704 20 31 17.31 -26 15 41.9 19.6   704 – Lincoln Laboratory ETS, New Mexico MPS 111864
2004 07 11.26764 20 31 16.72 -26 15 44.0 19.5   704 – Lincoln Laboratory ETS, New Mexico MPS 111864
2004 07 11.27866 20 31 16.16 -26 15 47.0 19.6   704 – Lincoln Laboratory ETS, New Mexico MPS 111864
2004 08 11.19772 20 01 29.93 -27 31 24.6 19.3   704 – Lincoln Laboratory ETS, New Mexico MPS 111864
2004 08 11.20784 20 01 29.43 -27 31 24.7 19.3   704 – Lincoln Laboratory ETS, New Mexico MPS 111864
2004 08 11.21766 20 01 28.92 -27 31 24.8 19.3   704 – Lincoln Laboratory ETS, New Mexico MPS 111864
2005 12 06.35333 07 40 20.75 +27 40 51.7 19.5 R 699 – Lowell Observatory-LONEOS MPS 153664
2005 12 06.37715 07 40 19.96 +27 40 54.9   699 – Lowell Observatory-LONEOS MPS 153664
2005 12 06.40094 07 40 19.05 +27 40 57.4   699 – Lowell Observatory-LONEOS MPS 153664
2005 12 06.42479 07 40 18.22 +27 41 04.6   699 – Lowell Observatory-LONEOS MPS 153664
2005 12 31.24145 07 18 08.91 +28 59 06.8   291 – LPL/Spacewatch II MPS 157743
2005 12 31.24612 07 18 08.59 +28 59 07.5   291 – LPL/Spacewatch II MPS 157743
2005 12 31.25181 07 18 08.19 +28 59 08.4   291 – LPL/Spacewatch II MPS 157743
2006 01 02.28426 07 15 50.06 +29 03 54.2 19.4   704 – Lincoln Laboratory ETS, New Mexico MPS 157743
2006 01 02.29775 07 15 49.08 +29 03 55.7 19.3   704 – Lincoln Laboratory ETS, New Mexico MPS 157743
2006 01 02.32436 07 15 47.36 +29 03 58.4 20.2   704 – Lincoln Laboratory ETS, New Mexico MPS 157743
2006 01 03.27948 07 14 42.03 +29 06 03.8 19.8   704 – Lincoln Laboratory ETS, New Mexico MPS 157743
2006 01 03.30595 07 14 40.18 +29 06 06.4 19.6   704 – Lincoln Laboratory ETS, New Mexico MPS 157743
2006 01 03.31911 07 14 39.14 +29 06 08.5 19.5   704 – Lincoln Laboratory ETS, New Mexico MPS 157743
2006 01 06.28078 07 11 16.08 +29 11 55.2 19.5   704 – Lincoln Laboratory ETS, New Mexico MPS 158936
2006 01 06.29533 07 11 14.96 +29 11 56.3 19.4   704 – Lincoln Laboratory ETS, New Mexico MPS 158936
2006 01 06.33606 07 11 12.06 +29 12 00.7 19.4   704 – Lincoln Laboratory ETS, New Mexico MPS 158936
2006 01 07.27152 07 10 08.02 +29 13 38.7 19.5   704 – Lincoln Laboratory ETS, New Mexico MPS 158936
2006 01 07.28532 07 10 07.04 +29 13 39.8 19.7   704 – Lincoln Laboratory ETS, New Mexico MPS 158936
2006 01 07.29835 07 10 06.21 +29 13 41.7 19.7   704 – Lincoln Laboratory ETS, New Mexico MPS 158936
2006 01 07.31358 07 10 05.06 +29 13 43.7 19.5   704 – Lincoln Laboratory ETS, New Mexico MPS 158936
2006 01 07.32986 07 10 03.93 +29 13 44.6 19.4   704 – Lincoln Laboratory ETS, New Mexico MPS 158936
2007 02 25.39491 13 20 47.58 -07 14 21.0 20.7 V G96 – Mt. Lemmon Survey MPS 201491
2007 02 25.40274 13 20 47.40 -07 14 20.5 20.7 V G96 – Mt. Lemmon Survey MPS 201491
2007 02 25.41058 13 20 47.25 -07 14 19.3 20.6 V G96 – Mt. Lemmon Survey MPS 201491
2007 02 25.41846 13 20 47.07 -07 14 19.2 20.6 V G96 – Mt. Lemmon Survey MPS 201491
2007 03 09.42187 13 15 05.63 -06 49 58.2 20.8 V 691 – Steward Observatory, Kitt Peak-Spacewatch MPS 202334
2007 03 09.43952 13 15 04.93 -06 49 55.9 20.6 V 691 – Steward Observatory, Kitt Peak-Spacewatch MPS 202334
2007 03 09.45719 13 15 04.29 -06 49 52.5 21.0 V 691 – Steward Observatory, Kitt Peak-Spacewatch MPS 202334
2007 03 13.33516 13 12 34.81 -06 38 24.5 20.5 V 691 – Steward Observatory, Kitt Peak-Spacewatch MPS 203007
2007 03 13.35284 13 12 34.04 -06 38 21.3 20.6 V 691 – Steward Observatory, Kitt Peak-Spacewatch MPS 203007
2007 03 13.37051 13 12 33.30 -06 38 17.7 20.5 V 691 – Steward Observatory, Kitt Peak-Spacewatch MPS 203007
2007 03 26.29366 13 02 27.07 -05 50 05.9 20.5 V 691 – Steward Observatory, Kitt Peak-Spacewatch MPS 205528
2007 03 26.31132 13 02 26.12 -05 50 01.9 20.4 V 691 – Steward Observatory, Kitt Peak-Spacewatch MPS 205528
2007 03 26.32898 13 02 25.17 -05 49 57.4 20.3 V 691 – Steward Observatory, Kitt Peak-Spacewatch MPS 205528
2007 04 07.32763 12 51 41.76 -04 57 40.7 19.8 V G96 – Mt. Lemmon Survey MPS 206757
2007 04 07.33534 12 51 41.32 -04 57 38.4 19.7 V G96 – Mt. Lemmon Survey MPS 206757
2007 04 07.34289 12 51 40.89 -04 57 36.6 19.8 V G96 – Mt. Lemmon Survey MPS 206757
2007 04 07.35052 12 51 40.46 -04 57 34.5 19.6 V G96 – Mt. Lemmon Survey MPS 206757
2007 04 14.27929 12 45 30.63 -04 27 31.4 20.1 V G96 – Mt. Lemmon Survey MPS 207942
2007 04 14.28485 12 45 30.31 -04 27 30.2 19.9 V G96 – Mt. Lemmon Survey MPS 207942
2007 04 14.29042 12 45 29.98 -04 27 28.8 20.1 V G96 – Mt. Lemmon Survey MPS 207942
2007 04 14.29605 12 45 29.70 -04 27 27.4 19.9 V G96 – Mt. Lemmon Survey MPS 207942
2007 05 09.20772 12 28 15.78 -03 08 26.3 20.5 V G96 – Mt. Lemmon Survey MPS 210053
2007 05 09.21530 12 28 15.52 -03 08 25.5 20.6 V G96 – Mt. Lemmon Survey MPS 210053
2007 05 09.22266 12 28 15.34 -03 08 24.7 20.4 V G96 – Mt. Lemmon Survey MPS 210053
2007 05 09.23001 12 28 15.13 -03 08 23.9 20.7 V G96 – Mt. Lemmon Survey MPS 210053
2009 12 15.31575 07 02 46.45 +29 10 59.4 19.3   704 – Lincoln Laboratory ETS, New Mexico MPS 312204
2009 12 15.31589 07 02 46.44 +29 10 57.6 19.4   704 – Lincoln Laboratory ETS, New Mexico MPS 312204
2009 12 15.32879 07 02 45.62 +29 11 00.2 20.2   704 – Lincoln Laboratory ETS, New Mexico MPS 312204
2009 12 15.35430 07 02 44.16 +29 11 05.5 19.9   704 – Lincoln Laboratory ETS, New Mexico MPS 312204
2009 12 15.35444 07 02 44.12 +29 11 05.3 19.7   704 – Lincoln Laboratory ETS, New Mexico MPS 312204
2009 12 15.36714 07 02 43.27 +29 11 08.4 19.7   704 – Lincoln Laboratory ETS, New Mexico MPS 312204
2009 12 15.36728 07 02 43.28 +29 11 06.6 20.0   704 – Lincoln Laboratory ETS, New Mexico MPS 312204
2009 12 19.22978 06 58 46.44 +29 21 27.8 19.9 V 691 – Steward Observatory, Kitt Peak-Spacewatch MPS 309150
2009 12 19.24752 06 58 45.29 +29 21 30.7 19.7 V 691 – Steward Observatory, Kitt Peak-Spacewatch MPS 309150
2009 12 19.26526 06 58 44.11 +29 21 33.6 20.1 V 691 – Steward Observatory, Kitt Peak-Spacewatch MPS 309150
